SWA380 KPHX-KLAX

Flight info

Callsign SWA380
Flight time 0h 55m
Altitude 32000
Route KEENS3 WLVRN ESTWD HLYWD1
Aircraft B38M/M-SADE2E3GHIJ4J7P2RWZ/LB1D1

Departure

Time 2026-05-04 06:27
Airport Phoenix Sky Harbor International Airport (KPHX)

Arrival

Time 2026-05-04 07:23
Airport Los Angeles International Airport (KLAX)
Time Latitude Longitude Altitude Speed Heading
2026-05-04 06:17 33.43409 -111.99364 1136 ft 0 kts 286°
2026-05-04 06:21 33.43405 -111.99341 1138 ft 4 kts 267°
2026-05-04 06:21 33.43413 -111.99316 1135 ft 4 kts 213°
2026-05-04 06:22 33.43431 -111.99309 1138 ft 1 kts 180°
2026-05-04 06:22 33.43434 -111.99309 1135 ft 0 kts 180°
2026-05-04 06:25 33.43369 -111.99310 1136 ft 17 kts 180°
2026-05-04 06:25 33.43228 -111.99328 1136 ft 22 kts 195°
2026-05-04 06:26 33.43116 -111.99365 1140 ft 12 kts 216°
2026-05-04 06:26 33.43102 -111.99394 1140 ft 0 kts 269°
2026-05-04 06:26 33.43102 -111.99399 1140 ft 4 kts 269°
2026-05-04 06:27 33.43104 -112.03174 1941 ft 179 kts 265°
2026-05-04 06:28 33.43016 -112.04677 2580 ft 189 kts 262°
2026-05-04 06:28 33.42924 -112.06362 3019 ft 216 kts 263°
2026-05-04 06:28 33.42633 -112.08206 3550 ft 234 kts 246°
2026-05-04 06:28 33.42030 -112.10094 4218 ft 251 kts 246°
2026-05-04 06:29 33.41409 -112.12079 5139 ft 255 kts 246°
2026-05-04 06:29 33.40840 -112.14066 6148 ft 259 kts 256°
2026-05-04 06:29 33.40922 -112.16237 7062 ft 268 kts 280°
2026-05-04 06:29 33.41462 -112.18433 7881 ft 277 kts 282°
2026-05-04 06:30 33.42006 -112.20673 8661 ft 283 kts 282°
2026-05-04 06:30 33.42560 -112.22939 9495 ft 289 kts 283°
2026-05-04 06:30 33.43131 -112.25281 10266 ft 296 kts 282°
2026-05-04 06:30 33.43718 -112.27698 10739 ft 315 kts 282°
2026-05-04 06:31 33.44349 -112.30304 11107 ft 336 kts 282°
2026-05-04 06:31 33.45018 -112.33073 11431 ft 356 kts 282°
2026-05-04 06:31 33.45725 -112.36003 11715 ft 375 kts 282°
2026-05-04 06:31 33.46462 -112.39059 12112 ft 387 kts 282°
2026-05-04 06:32 33.47216 -112.42171 12832 ft 389 kts 282°
2026-05-04 06:33 33.52541 -112.64131 18043 ft 394 kts 282°
2026-05-04 06:34 33.53305 -112.67298 18638 ft 395 kts 282°
2026-05-04 06:34 33.54060 -112.70428 19199 ft 396 kts 282°
2026-05-04 06:34 33.54825 -112.73607 19743 ft 397 kts 282°
2026-05-04 06:34 33.55592 -112.76793 20297 ft 397 kts 282°
2026-05-04 06:35 33.56360 -112.79991 20838 ft 398 kts 281°
2026-05-04 06:36 33.61779 -113.02660 24235 ft 408 kts 281°
2026-05-04 06:37 33.62560 -113.05944 24678 ft 408 kts 281°
2026-05-04 06:37 33.63329 -113.09183 25101 ft 409 kts 281°
2026-05-04 06:37 33.64110 -113.12477 25521 ft 410 kts 281°
2026-05-04 06:37 33.64890 -113.15768 25920 ft 410 kts 281°
2026-05-04 06:38 33.65674 -113.19075 26325 ft 410 kts 281°
2026-05-04 06:38 33.66446 -113.22345 26705 ft 411 kts 281°
2026-05-04 06:40 33.71844 -113.45296 29801 ft 400 kts 280°
2026-05-04 06:40 33.72600 -113.48526 30225 ft 398 kts 280°
2026-05-04 06:40 33.73346 -113.51712 30635 ft 396 kts 280°
2026-05-04 06:40 33.74087 -113.54893 31014 ft 394 kts 280°
2026-05-04 06:41 33.74814 -113.58018 31400 ft 392 kts 279°
2026-05-04 06:41 33.75548 -113.61168 31554 ft 390 kts 279°
2026-05-04 06:41 33.76278 -113.64309 31781 ft 390 kts 279°
2026-05-04 06:41 33.77006 -113.67446 31804 ft 388 kts 279°
2026-05-04 06:42 33.78448 -113.73671 31808 ft 387 kts 279°
2026-05-04 06:44 33.86102 -113.98127 31797 ft 389 kts 284°
2026-05-04 06:44 33.88121 -114.04186 31794 ft 389 kts 284°
2026-05-04 06:45 33.89796 -114.09226 31768 ft 391 kts 284°
2026-05-04 06:45 33.91376 -114.16505 31770 ft 385 kts 276°
2026-05-04 06:46 33.92283 -114.21755 31782 ft 385 kts 276°
2026-05-04 06:46 33.93353 -114.28048 31783 ft 385 kts 276°
2026-05-04 06:48 33.97606 -114.53324 31776 ft 382 kts 275°
2026-05-04 06:50 34.01778 -114.78448 31772 ft 382 kts 275°
2026-05-04 06:51 34.02810 -114.84712 31760 ft 382 kts 275°
2026-05-04 06:51 34.03846 -114.91016 31764 ft 383 kts 276°
2026-05-04 06:52 34.04295 -114.97283 31765 ft 375 kts 264°
2026-05-04 06:52 34.04248 -115.03613 31773 ft 377 kts 266°
2026-05-04 06:53 34.04279 -115.09961 31767 ft 378 kts 266°
2026-05-04 06:53 34.04328 -115.16272 31768 ft 378 kts 266°
2026-05-04 06:54 34.04378 -115.22640 31790 ft 377 kts 266°
2026-05-04 06:54 34.04424 -115.28916 31771 ft 376 kts 266°
2026-05-04 06:55 34.04466 -115.35230 31769 ft 377 kts 266°
2026-05-04 06:55 34.04507 -115.41577 31792 ft 378 kts 266°
2026-05-04 06:57 34.04633 -115.66912 31792 ft 379 kts 265°
2026-05-04 06:58 34.04657 -115.73255 31808 ft 379 kts 265°
2026-05-04 06:58 34.04678 -115.79626 31819 ft 378 kts 265°
2026-05-04 06:59 34.04695 -115.85932 31831 ft 379 kts 265°
2026-05-04 06:59 34.04709 -115.92290 31849 ft 379 kts 265°
2026-05-04 07:01 34.04732 -116.14437 30889 ft 375 kts 265°
2026-05-04 07:01 34.04733 -116.17540 30300 ft 371 kts 265°
2026-05-04 07:02 34.04732 -116.20650 29478 ft 370 kts 265°
2026-05-04 07:02 34.04730 -116.23763 28480 ft 372 kts 265°
2026-05-04 07:02 34.04728 -116.26900 27439 ft 375 kts 265°
2026-05-04 07:02 34.04724 -116.30077 26180 ft 383 kts 265°
2026-05-04 07:03 34.04721 -116.33343 24919 ft 393 kts 265°
2026-05-04 07:03 34.04715 -116.36621 23924 ft 398 kts 265°
2026-05-04 07:03 34.04710 -116.39950 23389 ft 398 kts 265°
2026-05-04 07:03 34.04706 -116.43307 22745 ft 401 kts 265°
2026-05-04 07:04 34.04697 -116.46661 22112 ft 399 kts 265°
2026-05-04 07:04 34.04687 -116.50013 21642 ft 399 kts 265°
2026-05-04 07:04 34.04678 -116.53357 21210 ft 397 kts 266°
2026-05-04 07:04 34.04658 -116.56689 20799 ft 396 kts 265°
2026-05-04 07:05 34.04595 -116.59966 20436 ft 395 kts 265°
2026-05-04 07:05 34.04535 -116.63278 20118 ft 394 kts 265°
2026-05-04 07:05 34.04475 -116.66579 19795 ft 393 kts 265°
2026-05-04 07:05 34.04415 -116.69879 19465 ft 393 kts 265°
2026-05-04 07:06 34.04294 -116.76455 18811 ft 390 kts 266°
2026-05-04 07:06 34.04234 -116.79668 18468 ft 385 kts 265°
2026-05-04 07:06 34.04173 -116.82888 18122 ft 382 kts 265°
2026-05-04 07:07 34.04109 -116.86084 17697 ft 381 kts 266°
2026-05-04 07:08 34.03660 -117.08281 14975 ft 378 kts 266°
2026-05-04 07:09 34.03592 -117.11453 14652 ft 378 kts 266°
2026-05-04 07:09 34.03525 -117.14586 14287 ft 378 kts 266°
2026-05-04 07:09 34.03456 -117.17757 13942 ft 378 kts 266°
2026-05-04 07:09 34.03386 -117.20924 13627 ft 377 kts 266°
2026-05-04 07:10 34.03315 -117.24074 13238 ft 374 kts 266°
2026-05-04 07:10 34.03244 -117.27212 12855 ft 373 kts 266°
2026-05-04 07:12 34.02734 -117.48843 10577 ft 364 kts 266°
2026-05-04 07:12 34.02659 -117.51859 10253 ft 363 kts 267°
2026-05-04 07:12 34.02584 -117.54878 9943 ft 355 kts 266°
2026-05-04 07:12 34.02510 -117.57826 9599 ft 347 kts 267°
2026-05-04 07:13 34.02437 -117.60698 9252 ft 339 kts 267°
2026-05-04 07:13 34.02365 -117.63509 8908 ft 332 kts 267°
2026-05-04 07:13 34.02294 -117.66265 8609 ft 326 kts 267°
2026-05-04 07:14 34.01522 -117.76998 7347 ft 324 kts 263°
2026-05-04 07:14 34.01253 -117.79696 7024 ft 324 kts 262°
2026-05-04 07:15 34.00986 -117.82401 6682 ft 324 kts 263°
2026-05-04 07:15 34.00725 -117.85061 6359 ft 323 kts 263°
2026-05-04 07:15 34.00461 -117.87755 5999 ft 322 kts 262°
2026-05-04 07:15 34.00199 -117.90424 5640 ft 317 kts 263°
2026-05-04 07:16 33.99950 -117.92973 5291 ft 300 kts 262°
2026-05-04 07:16 33.99711 -117.95404 5016 ft 291 kts 262°
2026-05-04 07:16 33.99479 -117.97774 4767 ft 285 kts 262°
2026-05-04 07:16 33.99274 -117.99846 4542 ft 280 kts 262°
2026-05-04 07:17 33.99069 -118.01901 4350 ft 274 kts 263°
2026-05-04 07:17 33.98871 -118.03977 4358 ft 263 kts 263°
2026-05-04 07:17 33.98665 -118.06149 4358 ft 259 kts 262°
2026-05-04 07:17 33.98450 -118.08315 4391 ft 260 kts 262°
2026-05-04 07:18 33.98236 -118.10448 4376 ft 248 kts 262°
2026-05-04 07:18 33.98033 -118.12453 4371 ft 242 kts 262°
2026-05-04 07:18 33.97829 -118.14465 4285 ft 242 kts 262°
2026-05-04 07:18 33.97625 -118.16452 3976 ft 241 kts 262°
2026-05-04 07:19 33.97424 -118.18436 3679 ft 239 kts 262°
2026-05-04 07:19 33.97247 -118.20175 3415 ft 238 kts 262°
2026-05-04 07:19 33.97071 -118.21917 3155 ft 236 kts 263°
2026-05-04 07:19 33.96871 -118.23873 2839 ft 234 kts 263°
2026-05-04 07:20 33.96692 -118.25628 2558 ft 232 kts 263°
2026-05-04 07:20 33.96525 -118.27269 2284 ft 230 kts 263°
2026-05-04 07:20 33.96355 -118.28936 2028 ft 230 kts 263°
2026-05-04 07:20 33.96165 -118.30804 1725 ft 220 kts 263°
2026-05-04 07:22 33.95228 -118.40032 186 ft 136 kts 262°
2026-05-04 07:22 33.95117 -118.41096 127 ft 116 kts 261°
2026-05-04 07:23 33.95040 -118.41840 128 ft 59 kts 262°
2026-05-04 07:23 33.94994 -118.42291 128 ft 45 kts 263°